This demonstration page uses our WeatherBlox Daily Observations layout. Learn more.

38.88101, -77.10428

Hourly Observations for August 16, 2017

Temp ( °F °C ) Dew Point ( °F °C ) Humidity (%) Winds ( mph kmh ) Pressure ( in mb ) Visibility ( mi km ) Precip ( " mm )
12:52 am 00:52 Mostly Cloudy 75 23.9 74 23.3 96 96 Calm 29.94 1014 7 11.26538 0 0
1:52 am 01:52 Mostly Cloudy with Mist and Fog 75 23.9 74 23.3 96 96 Calm 29.93 1014 6 9.65604 0 0
2:31 am 02:31 Mostly Cloudy 74 23.3 73 22.8 97 97 N 5 7 29.94 1014 7 11.26538 0 0
2:52 am 02:52 Partly Cloudy 73 22.8 72 22.2 96 96 N 6 9 29.94 1014 7 11.26538 0 0
3:52 am 03:52 Partly Cloudy 73 22.8 73 22.8 100 100 NNW 6 9 29.94 1014 7 11.26538 0 0
4:52 am 04:52 Mostly Cloudy with Mist and Fog 73 22.8 73 22.8 100 100 Calm 29.95 1014 6 9.65604 0 0
5:33 am 05:33 Mostly Cloudy with Mist and Fog 74 23.3 73 22.8 97 97 NE 3 6 29.97 1015 5 8.0467 0 0
5:52 am 05:52 Cloudy with Mist and Fog 73 22.8 73 22.8 100 100 Calm 29.98 1015 3 4.82802 0 0
6:16 am 06:16 Cloudy with Mist and Fog 73 22.8 73 22.8 100 100 ESE 3 6 30 1016 2.5 4.02335 0 0
6:52 am 06:52 Cloudy with Mist and Fog 73 22.8 73 22.8 100 100 Calm 29.99 1016 2 3.21868 0 0
7:33 am 07:33 Mostly Cloudy with Mist and Fog 74 23.3 73 22.8 97 97 NNE 3 6 30 1016 2 3.21868 0 0
7:52 am 07:52 Mostly Cloudy with Mist and Fog 75 23.9 74 23.3 96 96 Calm 30 1016 2.5 4.02335 0 0
8:15 am 08:15 Mostly Cloudy with Mist and Fog 76 24.4 74 23.3 94 94 NE 5 7 30 1016 2.5 4.02335 0 0
8:46 am 08:46 Mostly Cloudy with Mist and Fog 77 25 73 23 89 89 Calm 30 1016 3 4.82802 0 0
8:52 am 08:52 Mostly Cloudy with Mist and Fog 76 24.4 74 23.3 94 94 ENE 5 7 30.01 1016 3 4.82802 0 0
9:52 am 09:52 Mostly Cloudy with Mist and Fog 78 25.6 74 23.3 87 87 E 5 7 30.01 1016 6 9.65604 0 0
10:52 am 10:52 Cloudy 81 27.2 74 23.3 79 79 E 6 9 30.01 1016 10 16.0934 0 0
11:52 am 11:52 Cloudy 85 29.4 73 22.8 68 68 E 3 6 30.01 1016 10 16.0934 0 0
12:52 pm 12:52 Mostly Cloudy 88 31.1 71 21.7 57 57 NNW 9 15 30 1016 10 16.0934 0 0
1:52 pm 13:52 Partly Cloudy 89 31.7 71 21.7 55 55 N 9 15 30 1016 10 16.0934 0 0
2:52 pm 14:52 Partly Cloudy 91 32.8 67 19.4 45 45 VRB 7 11 29.99 1016 10 16.0934 0 0
3:52 pm 15:52 Mostly Cloudy 91 32.8 67 19.4 45 45 WNW 10 17 29.98 1015 10 16.0934 0 0
4:52 pm 16:52 Partly Cloudy 90 32.2 69 20.6 50 50 NNW 8 13 29.97 1015 10 16.0934 0 0
5:52 pm 17:52 Mostly Cloudy 88 31.1 66 18.9 48 48 NNW 8 13 29.98 1015 10 16.0934 0 0
6:52 pm 18:52 Mostly Cloudy 87 30.6 68 20 53 53 NNW 8 13 29.97 1015 10 16.0934 0 0
7:52 pm 19:52 Mostly Cloudy 86 30 69 20.6 57 57 NE 6 9 29.98 1015 10 16.0934 0 0
8:52 pm 20:52 Cloudy 85 29.4 69 20.6 59 59 NE 6 9 30 1016 10 16.0934 0 0
9:52 pm 21:52 Cloudy 82 27.8 75 23.9 79 79 ENE 5 7 30.02 1017 10 16.0934 0 0
10:52 pm 22:52 Cloudy 83 28.3 75 23.9 77 77 Calm 30.03 1017 10 16.0934 0 0
11:52 pm 23:52 Cloudy 81 27.2 76 24.4 85 85 ESE 3 6 30.03 1017 10 16.0934 0 0

Powered by AerisWeather